Weather History for Wilmington, OH

Change the Weather History Date:

Friday, September 20, 2013

  Actual Average (KDAY) Record (KDAY)
Temperature  
Mean Temperature 76 °F 64 °F  
Max Temperature 87 °F 74 °F 95 °F (1908)
Min Temperature 66 °F 53 °F 36 °F (1991)
Degree Days  
Heating Degree Days 0 4  
Month to date heating degree days 36  
Since 1 July heating degree days 38  
Cooling Degree Days 11 2  
Month to date cooling degree days 82  
Year to date cooling degree days 864  
Growing Degree Days 26 (Base 50)    
Moisture  
Dew Point 66 °F    
Average Humidity 82    
Maximum Humidity 97    
Minimum Humidity 49    
Precipitation  
Precipitation 0.47 in 0.11 in 1.73 in (1932)
Month to date precipitation 2.22  
Year to date precipitation 30.53  
Snow  
Snow 0.00 in 0.00 in - ()
Month to date snowfall 0.0  
Since 1 July snowfall 0.0  
Since 1 September snowfall 0.0  
Snow Depth -    
Sea Level Pressure  
Sea Level Pressure 29.89 in    
Wind  
Wind Speed 8 mph (SW)    
Max Wind Speed 18 mph    
Max Gust Speed 28 mph    
Visibility 6 miles    
Events Rain , Thunderstorm    
T = Trace of Precipitation, MM = Missing Value Source: NWS Daily Summary

Daily Weather History Graph

Daily Weather History Graph

Search for Another Location

Airport:

Trip Planner

Search our weather history database for the weather conditions in past years. The results will help you decide how hot, cold, wet, or windy it might be!

Date:

Astronomy

Sep. 20, 2013 Rise Set
Actual Time 7:21 AM EDT 7:35 PM EDT
Civil Twilight 6:54 AM EDT 8:02 PM EDT
Nautical Twilight 6:23 AM EDT 8:33 PM EDT
Astronomical Twilight 5:50 AM EDT 9:05 PM EDT
Moon 8:09 PM EDT (9/20) 8:34 AM EDT (9/20)
Length of Visible Light 13h 07m
Length of Day
12h 13m
Full, 98% of the Moon is Illuminated
Sep 20
Full
Sep 26
Last Quarter
Oct 4
New
Oct 11
First Quarter
Oct 18
Full

Hourly Weather History & Observations

Time (EDT) Temp. Heat Index Dew Point Humidity Pressure Visibility Wind Dir Wind Speed Gust Speed Precip Events Conditions
12:54 AM 66.9 °F - 64.9 °F 93% 30.01 in 6.0 mi SSE 3.5 mph - N/A   Partly Cloudy
1:54 AM 68.0 °F - 66.0 °F 93% 30.00 in 5.0 mi South 6.9 mph - N/A   Clear
2:54 AM 66.9 °F - 66.0 °F 97% 29.99 in 4.0 mi South 5.8 mph - N/A   Clear
3:54 AM 68.0 °F - 66.0 °F 93% 29.96 in 4.0 mi SSW 6.9 mph - N/A   Clear
4:54 AM 66.9 °F - 66.0 °F 97% 29.95 in 4.0 mi SSW 4.6 mph - N/A   Clear
5:54 AM 66.0 °F - 64.9 °F 96% 29.96 in 4.0 mi SSW 4.6 mph - N/A   Clear
6:54 AM 66.0 °F - 64.9 °F 96% 29.97 in 3.0 mi SSW 5.8 mph - N/A   Clear
7:29 AM 66.2 °F - 64.4 °F 94% 29.98 in 2.5 mi South 5.8 mph - N/A   Clear
7:54 AM 66.9 °F - 64.9 °F 93% 29.97 in 3.0 mi South 4.6 mph - N/A   Clear
8:54 AM 70.0 °F - 66.0 °F 87% 29.98 in 5.0 mi SSW 6.9 mph - N/A   Clear
9:54 AM 73.0 °F - 66.9 °F 81% 29.96 in 8.0 mi SW 13.8 mph - N/A   Clear
10:54 AM 78.1 °F - 66.9 °F 68% 29.95 in 10.0 mi SW 11.5 mph - N/A   Clear
11:54 AM 82.0 °F 84.1 °F 66.0 °F 58% 29.93 in 10.0 mi SW 10.4 mph - N/A   Clear
12:54 PM 84.0 °F 85.8 °F 64.9 °F 53% 29.90 in 10.0 mi WSW 16.1 mph - N/A   Partly Cloudy
1:54 PM 86.0 °F 87.6 °F 64.9 °F 49% 29.87 in 10.0 mi SW 15.0 mph - N/A   Partly Cloudy
2:54 PM 86.0 °F 87.6 °F 64.9 °F 49% 29.84 in 10.0 mi SW 18.4 mph - N/A   Partly Cloudy
3:54 PM 84.9 °F 86.1 °F 64.0 °F 49% 29.81 in 10.0 mi SSW 11.5 mph 21.9 mph N/A   Partly Cloudy
4:54 PM 82.9 °F 84.4 °F 64.0 °F 53% 29.80 in 10.0 mi SSW 15.0 mph - N/A   Partly Cloudy
5:54 PM 82.9 °F 84.0 °F 63.0 °F 51% 29.80 in 10.0 mi SSW 16.1 mph - N/A   Partly Cloudy
6:54 PM 80.1 °F 81.7 °F 64.0 °F 58% 29.81 in 10.0 mi SSW 10.4 mph - N/A   Partly Cloudy
7:54 PM 70.0 °F - 68.0 °F 93% 29.84 in 2.5 mi West 11.5 mph - 0.05 in Rain Heavy Rain
8:03 PM 69.8 °F - 68.0 °F 94% 29.86 in 5.0 mi WNW 9.2 mph - 0.02 in Rain Rain
8:26 PM 69.8 °F - 68.0 °F 94% 29.88 in 2.5 mi WSW 16.1 mph - 0.07 in Rain , Thunderstorm Heavy Rain
8:35 PM 68.0 °F - 66.2 °F 94% 29.87 in 1.2 mi WSW 12.7 mph 27.6 mph 0.21 in Rain Heavy Rain
8:43 PM 69.8 °F - 66.2 °F 88% 29.87 in 3.0 mi WSW 10.4 mph - 0.28 in Rain Rain
8:54 PM 69.1 °F - 68.0 °F 96% 29.85 in 5.0 mi West 9.2 mph - 0.31 in Rain Rain
9:54 PM 70.0 °F - 68.0 °F 93% 29.82 in 9.0 mi WSW 4.6 mph - 0.04 in Rain Light Rain
10:27 PM 69.8 °F - 68.0 °F 94% 29.84 in 6.0 mi WSW 3.5 mph - 0.01 in Rain Light Rain
10:54 PM 69.1 °F - 68.0 °F 96% 29.81 in 4.0 mi WSW 5.8 mph - 0.02 in Rain Light Rain
11:15 PM 69.8 °F - 68.0 °F 94% 29.83 in 4.0 mi SSW 3.5 mph - 0.03 in Rain Light Rain
11:54 PM 69.1 °F - 68.0 °F 96% 29.79 in 2.5 mi South 3.5 mph - 0.05 in Rain Light Rain